SCP
0 1 1 1 1 1 0 0 0 0 0 0 0 0 1 1 1 1 0 0 1 1 1 1 1 1 1 1 1 1 1 1 1 1 1 1 0 0 0 0 0 0 0 0 0 0 0 0 0
0 1 1 0 0 0 0 0 0 0 0 0 0 0 0 0 0 0 0 0 1 1 1 1 1 1 1 1 1 1 1 1 1 1 1 1 1 1 0 0 0 0 0 0 0 0 0 0 0
0 0 0 0 0 0 0 0 0 0 0 0 0 0 0 0 0 0 0 0 1 1 1 1 1 1 1 1 1 1 1 1 1 1 1 1 1 1 1 1 0 0 0 0 0 0 0 0 0
0 0 0 0 0 0 0 0 0 0 0 0 0 0 0 0 0 0 0 0 0 1 1 1 1 1 1 1 1 1 0 1 1 1 1 1 1 1 1 1 1 0 0 0 1 1 1 1 1
0 0 0 0 0 0 0 0 0 0 0 0 0 0 0 0 0 0 0 0 0 1 1 1 1 1 1 1 1 1 1 1 1 1 1 1 1 1 1 1 1 1 0 0 0 1 1 1 1
0 0 0 0 0 0 0 0 0 0 0 0 0 0 0 0 0 0 0 0 1 1 1 1 0 0 0 1 1 1 1 1 1 1 1 1 1 1 0 0 1 1 0 0 0 0 1 1 1
0 0 0 0 0 0 0 0 0 0 0 0 0 0 0 0 0 0 0 0 1 1 1 1 0 0 0 1 1 0 1 1 1 1 1 1 1 0 0 0 0 0 0 0 0 0 0 0 1
0 0 0 0 0 0 0 0 0 0 0 0 0 0 0 0 1 1 0 1 1 1 1 1 1 0 0 0 0 0 0 1 1 1 1 0 0 0 0 0 0 0 0 0 0 0 0 0 0
0 0 0 0 0 0 0 0 0 0 0 0 0 0 1 1 1 1 0 1 1 1 1 1 0 0 0 0 0 0 0 0 0 0 0 0 0 0 0 0 0 0 0 0 0 0 0 0 0
0 0 0 0 0 0 0 0 0 0 0 0 0 0 1 1 1 1 1 0 1 1 1 1 0 0 0 0 0 0 0 0 0 0 0 0 0 0 0 0 0 0 0 0 0 0 0 0 0
0 0 0 0 0 0 0 0 0 0 0 0 0 0 1 1 1 1 1 1 1 1 1 1 1 1 0 0 0 0 0 0 0 0 0 0 0 0 0 0 0 0 0 0 0 0 0 0 0
0 0 0 0 0 0 0 0 0 0 0 0 0 0 1 1 1 1 1 1 1 1 1 1 1 1 1 1 1 1 0 0 0 0 0 0 0 0 0 0 0 0 0 0 0 0 0 0 0
0 0 0 0 0 0 0 0 0 0 0 0 0 0 0 1 1 0 0 1 1 1 1 1 1 1 1 1 1 1 1 1 1 0 0 0 0 0 0 0 0 0 0 0 0 0 0 0 0
0 0 0 0 0 0 0 0 0 0 0 0 0 0 0 0 0 0 0 1 1 1 1 1 1 1 1 1 1 1 1 1 1 1 1 1 1 1 1 0 0 0 0 0 0 0 0 0 0
0 0 0 0 0 0 0 0 0 0 0 0 0 0 0 0 0 0 0 0 1 1 1 1 1 1 1 1 1 1 2 2 2 1 1 1 1 1 1 1 1 0 0 0 0 0 0 0 0
0 0 0 0 0 0 0 0 0 0 0 0 0 0 0 0 0 0 0 0 0 0 0 1 1 1 1 1 1 1 3 4 2 1 1 1 1 1 1 1 1 1 1 0 0 0 0 0 0
0 0 0 0 0 0 0 0 0 0 0 0 0 0 0 0 0 0 0 0 0 0 0 1 1 1 1 1 1 1 2 3 2 1 1 1 1 1 1 1 1 1 0 0 0 0 0 0 0
0 0 0 0 0 0 0 0 0 0 0 0 0 0 0 0 0 0 0 0 0 0 1 1 1 1 1 1 1 2 2 2 1 1 1 0 0 0 1 1 1 0 0 0 0 0 0 0 0
0 0 0 0 0 0 0 0 0 0 0 0 0 0 0 0 0 0 0 0 0 0 1 1 1 1 1 1 1 1 2 2 2 1 0 0 0 0 0 0 0 0 0 0 0 0 0 0 0
0 0 0 0 0 0 0 0 0 0 0 0 0 0 0 0 0 0 1 1 1 1 1 1 1 0 0 1 1 1 2 2 2 1 1 0 0 0 0 0 0 0 0 0 0 0 0 0 0
0 0 0 0 0 0 0 0 0 0 0 0 0 0 0 0 0 0 1 1 1 1 1 1 1 0 0 0 1 1 2 2 1 1 1 0 0 0 0 0 0 0 0 0 0 0 0 0 0
0 0 0 0 0 0 0 0 0 0 0 0 0 0 0 0 0 0 1 1 1 1 1 1 1 0 0 0 1 1 1 1 1 1 0 0 0 0 0 0 0 0 0 0 0 0 0 0 0
0 0 0 0 0 0 0 0 0 0 0 0 0 0 0 0 0 0 1 1 1 1 1 1 1 1 0 0 1 1 1 1 1 1 0 0 0 0 0 0 0 0 0 0 0 0 0 0 0
0 0 0 0 0 0 0 0 0 0 0 0 0 0 0 0 0 0 0 1 2 2 2 2 1 1 1 1 1 1 0 0 0 0 0 0 0 0 0 0 0 0 0 0 0 0 0 0 0
0 0 0 0 0 0 0 0 0 0 0 0 0 0 0 0 0 0 0 0 1 2 2 2 2 2 1 1 1 1 0 0 0 0 0 0 0 0 0 0 0 0 0 0 0 0 0 0 0
0 0 0 0 0 0 0 0 0 0 0 0 0 0 0 0 0 0 0 0 0 1 1 2 2 2 2 2 1 1 1 1 1 1 1 0 0 0 0 0 0 0 0 0 0 0 0 0 0
0 0 0 0 0 0 0 0 0 0 0 0 0 0 0 0 0 0 0 0 0 0 1 1 2 2 2 2 2 1 1 1 1 1 1 1 0 0 0 0 0 0 0 0 0 0 0 0 0
0 0 0 0 0 0 0 0 0 0 0 0 0 0 0 0 0 0 0 0 0 0 0 0 1 1 2 2 2 2 1 1 1 1 1 1 1 1 0 0 0 0 0 0 0 0 0 0 0
0 0 0 0 0 0 0 0 0 0 0 0 0 0 0 0 0 0 0 0 0 0 0 0 0 0 1 1 1 1 1 1 1 1 1 1 1 1 1 1 1 1 0 0 0 0 0 0 0
0 0 0 0 0 0 0 0 0 0 0 0 0 0 0 0 0 0 0 0 0 0 0 0 0 0 0 0 1 1 1 1 1 1 1 1 1 1 1 1 1 1 1 1 0 0 0 0 0
Wind_Speed
11 10 6 3 3 4 6 5 3 0 2 4 5 4 5 5 5 5 3 3 5 7 8 6 6 7 8 8 9 9 9 8 8 8 9 9 9 9 9 9 9 9 9 9 9 9 9 9 9
9 7 4 3 4 5 5 5 1 3 4 4 3 2 3 4 7 6 3 3 5 7 7 6 7 7 8 8 8 8 8 8 8 8 8 8 8 8 8 9 9 8 8 8 8 8 8 8 8
9 7 3 3 4 5 2 2 5 4 4 3 2 3 3 4 5 4 4 3 5 7 7 7 8 8 8 8 8 9 8 8 7 7 7 7 7 7 7 7 7 7 7 7 7 7 7 7 7
5 3 3 4 7 4 3 3 3 3 3 2 1 2 4 5 4 5 5 4 6 6 6 7 8 8 7 7 8 8 8 8 7 7 7 7 7 7 7 6 6 6 6 6 7 7 7 6 6
4 3 4 5 8 5 2 2 2 1 2 2 2 1 4 5 7 7 5 5 5 5 6 7 8 7 7 7 8 8 8 7 7 6 6 6 7 7 7 6 6 6 5 6 6 6 6 6 5
3 3 5 7 7 4 2 2 2 2 1 0 1 1 3 5 6 5 5 5 5 5 6 6 6 7 7 7 7 7 6 7 7 6 6 6 6 6 6 6 6 5 5 6 6 5 5 5 5
3 3 6 7 5 4 2 1 2 2 1 1 1 1 4 6 5 5 5 5 5 5 5 5 5 5 6 6 6 6 5 6 6 6 6 5 5 5 5 5 5 4 5 5 5 5 5 4 4
3 3 6 7 6 4 0 1 1 2 1 1 2 0 3 6 6 5 5 5 5 4 4 4 4 4 4 4 5 6 5 5 5 5 5 5 5 5 4 4 4 4 4 4 4 4 4 4 4
4 4 5 4 3 1 1 1 2 1 1 0 1 2 5 7 6 5 4 4 4 4 3 3 3 3 3 4 4 4 5 4 4 4 4 4 2 2 2 3 4 4 4 3 4 4 4 4 3
3 5 5 3 3 1 1 1 3 2 3 2 2 4 7 6 6 5 4 4 4 4 3 3 3 3 3 3 3 2 2 2 2 2 2 1 1 1 2 3 3 3 3 3 2 2 2 1 1
3 4 2 3 4 3 2 3 4 4 4 2 1 3 5 5 5 5 5 4 4 4 4 3 3 3 3 2 3 2 1 2 1 2 2 1 1 1 2 2 2 1 1 1 1 0 1 1 1
4 4 3 3 3 3 3 3 4 4 4 2 1 1 3 4 4 5 4 4 4 4 4 3 3 3 3 2 2 2 2 1 1 2 2 1 1 1 1 1 1 1 0 0 0 0 1 1 1
7 5 4 3 3 3 4 5 5 6 4 3 2 2 2 4 4 4 4 3 4 4 4 4 3 3 3 3 2 2 2 2 2 2 1 1 1 1 1 1 1 1 0 0 0 1 1 1 1
3 4 5 6 6 5 5 6 5 7 4 4 4 4 4 4 5 4 4 4 4 4 4 4 4 3 3 2 2 2 2 2 2 2 2 2 1 1 1 1 0 0 0 0 0 1 1 1 1
3 5 6 7 7 4 3 7 8 7 6 6 5 4 4 4 4 5 4 4 4 4 4 4 4 3 3 3 2 2 2 2 2 2 2 1 1 1 1 1 1 0 0 0 0 0 0 1 1
5 6 6 5 6 5 5 9 4 3 6 6 5 4 4 4 4 3 4 4 4 4 4 4 3 4 4 3 2 2 2 2 1 1 1 1 1 1 1 1 1 1 0 0 0 0 0 0 1
6 7 7 5 6 5 7 7 3 4 5 6 6 5 4 4 4 4 3 3 4 4 4 4 4 4 4 3 2 2 2 2 2 1 1 1 1 1 1 1 1 1 1 0 0 0 0 0 1
5 7 6 6 4 6 8 9 5 5 6 6 6 5 5 5 4 4 4 3 3 3 3 4 4 4 4 3 2 2 2 2 2 2 1 2 1 1 1 1 1 1 1 0 0 0 0 0 0
7 7 8 6 4 5 8 10 8 7 7 7 6 6 5 5 4 4 4 4 3 3 3 3 3 4 4 3 2 2 2 2 2 2 2 2 2 2 1 1 1 1 1 1 1 0 0 0 1
8 10 9 5 3 5 7 11 8 9 10 8 7 6 5 4 3 4 4 4 4 3 3 3 3 3 3 3 3 2 2 2 2 2 2 2 2 2 2 2 2 2 1 1 1 1 0 0 0
10 9 8 6 5 6 7 10 9 8 8 8 7 5 4 4 4 4 4 4 3 3 3 3 3 3 3 3 2 2 2 1 1 2 2 2 2 2 2 2 2 2 2 2 2 2 2 1 1
9 4 5 5 5 5 4 8 6 6 7 8 7 6 5 3 3 4 4 3 3 3 3 2 3 3 3 3 3 3 3 3 2 2 2 2 2 3 3 2 2 2 2 2 3 3 2 2 2
4 2 4 5 5 6 6 7 7 6 8 8 7 5 4 4 4 4 4 3 3 3 2 2 2 2 2 2 3 3 2 2 2 2 2 2 2 2 3 3 2 2 2 2 2 3 3 2 2
2 1 3 4 3 7 8 8 8 6 8 5 5 5 4 3 4 4 4 4 3 2 2 2 2 2 2 2 2 2 3 2 2 2 2 2 2 2 2 2 3 3 2 3 3 3 3 3 3
3 2 2 3 5 8 5 7 8 2 2 4 5 5 4 4 4 4 4 4 3 2 2 2 2 2 2 2 1 1 1 2 3 2 2 2 2 2 3 3 3 3 3 3 3 3 3 3 3
7 6 5 4 5 4 3 8 6 2 3 4 3 4 5 4 4 4 4 3 3 3 2 1 2 2 2 2 1 1 1 1 1 1 1 2 2 2 2 3 3 3 3 3 3 3 3 3 3
4 6 4 3 3 5 6 5 4 2 3 3 2 3 4 4 4 3 3 2 2 3 2 2 2 1 1 1 1 0 1 0 0 1 1 1 1 1 1 2 2 3 3 3 3 2 3 3 3
3 2 2 4 4 6 7 7 6 4 4 3 3 3 3 3 3 3 2 2 2 2 2 2 2 2 1 1 1 1 0 0 0 1 1 1 1 1 1 1 2 2 3 3 3 2 3 3 3
5 5 5 4 4 4 5 5 1 3 4 4 3 3 3 3 3 2 2 2 2 2 2 2 2 2 1 1 1 1 1 0 1 1 0 0 0 1 1 1 1 2 2 2 2 3 3 4 4
6 7 6 5 5 5 5 6 2 2 3 3 2 2 3 3 2 2 3 3 2 2 2 2 1 1 1 1 1 1 1 1 1 0 0 0 0 0 1 1 1 1 1 2 2 3 3 4 4
Wind_Direction
295 273 256 253 243 233 242 245 255 33 62 47 32 23 35 31 38 89 102 78 94 114 124 128 113 119 120 117 115 110 106 103 103 100 96 93 90 87 83 79 76 73 71 72 74 74 71 68 65
290 280 255 235 243 237 235 233 217 61 67 72 53 31 48 69 74 95 97 71 101 112 120 123 108 114 120 119 117 113 109 104 102 103 101 96 92 89 86 81 78 74 71 71 71 72 70 67 64
274 264 253 235 238 250 256 45 77 84 74 68 70 41 23 53 76 89 96 107 107 110 116 111 105 109 117 120 118 113 108 103 100 99 101 100 96 91 88 84 80 76 73 70 70 70 68 65 61
267 236 237 244 245 259 282 11 58 99 106 105 115 102 91 55 53 81 106 114 110 108 112 112 108 108 113 123 123 118 113 108 102 99 101 101 97 92 87 83 81 78 75 72 70 70 65 62 58
243 243 233 237 245 249 283 351 353 283 159 154 152 124 100 84 85 95 110 111 114 112 110 120 109 106 106 116 119 117 112 108 105 101 105 103 96 89 83 78 76 73 71 69 68 68 64 57 53
250 239 240 237 238 228 227 278 273 274 246 144 131 170 106 107 104 111 117 115 116 116 116 126 114 107 108 112 119 117 112 110 105 102 102 97 94 91 88 80 75 72 69 68 65 60 58 55 50
259 255 254 257 246 244 222 246 279 255 273 333 328 178 122 117 112 120 117 114 110 113 121 132 140 131 119 112 111 111 107 108 103 97 96 93 87 80 75 71 71 72 70 67 63 58 49 46 44
284 270 252 252 244 246 203 200 307 315 296 21 349 193 115 122 122 121 116 116 114 111 118 134 141 141 141 132 118 113 108 99 96 90 88 87 84 79 75 71 68 69 67 65 60 55 49 43 33
267 248 248 261 264 214 80 317 317 338 272 104 86 62 96 121 131 131 126 120 119 121 124 129 139 143 140 139 134 127 121 113 107 98 98 104 109 102 92 81 71 66 63 63 60 52 50 45 23
237 243 249 310 331 333 333 312 303 269 230 208 163 123 122 136 147 151 152 155 148 142 137 131 142 148 145 148 141 148 143 132 125 116 126 131 101 87 90 78 77 65 58 61 53 40 32 24 9
234 244 263 304 338 341 319 305 288 271 255 231 188 153 146 149 159 167 171 171 165 152 143 138 146 148 148 147 143 150 146 142 151 137 124 112 100 94 93 97 85 82 74 71 53 7 309 326 338
235 260 271 278 314 314 288 283 283 272 271 324 13 86 152 165 177 182 184 179 158 153 152 143 145 146 147 143 145 147 151 154 159 147 134 128 106 98 110 118 134 123 75 98 128 304 321 331 325
228 242 260 264 263 263 268 263 268 264 270 292 284 210 205 183 186 187 181 176 164 163 161 154 150 157 159 153 149 146 150 155 148 137 152 139 125 121 107 125 134 136 114 142 294 296 320 331 321
242 241 249 251 250 249 246 254 252 252 239 238 233 220 206 199 192 193 189 184 176 172 166 160 162 167 164 162 157 154 152 144 147 139 144 147 140 148 144 137 150 173 175 197 263 296 327 327 332
245 250 253 235 224 219 249 255 237 238 229 234 230 221 205 207 197 195 195 186 179 172 167 163 166 170 168 167 164 151 154 141 144 139 139 136 135 154 154 159 169 195 161 164 301 326 345 340 345
224 233 239 217 206 194 214 253 234 220 221 228 230 219 211 207 204 199 188 180 173 168 165 166 167 171 172 171 170 160 149 142 137 134 141 143 145 149 152 166 181 175 166 158 168 185 351 342 336
217 234 239 233 208 201 211 251 233 237 232 228 228 219 214 207 197 192 176 173 169 168 164 168 170 170 169 170 171 166 156 146 147 134 138 154 160 154 158 184 183 163 162 166 228 11 231 310 323
227 240 251 240 214 218 224 244 242 240 247 241 227 218 213 205 200 174 155 150 147 155 162 170 170 163 159 165 166 162 151 154 153 150 159 157 166 174 173 179 176 163 161 182 178 236 289 230 303
275 267 263 262 244 241 239 250 247 239 246 246 234 222 217 200 172 150 142 141 143 151 163 173 171 162 160 164 169 177 178 168 165 170 176 172 170 184 178 181 178 179 182 198 188 130 296 335 22
257 264 267 273 254 254 257 258 248 239 240 241 234 225 216 194 161 148 145 146 152 160 165 169 171 166 166 170 172 180 171 177 179 170 177 180 174 180 181 184 192 196 182 175 173 146 156 249 95
248 251 260 266 276 260 270 265 234 228 225 225 225 217 205 195 176 162 157 154 154 161 161 167 169 170 171 164 161 161 153 155 168 179 188 200 197 185 180 196 191 195 188 189 191 189 182 206 235
254 256 274 270 262 254 233 276 242 216 225 217 213 208 200 179 159 152 148 150 156 155 150 155 163 171 174 170 177 179 180 187 194 186 193 203 205 196 191 197 195 197 190 196 200 195 197 178 218
251 315 277 266 260 268 234 255 262 204 228 218 203 188 175 156 147 141 139 141 133 131 136 142 147 156 159 174 183 189 194 196 180 174 187 196 203 204 197 196 200 203 203 202 203 200 195 194 202
231 287 273 259 248 254 223 223 264 211 217 204 176 169 157 146 138 129 121 113 105 112 118 129 142 140 144 162 176 191 192 187 177 184 195 195 194 204 203 204 205 206 208 212 211 203 202 209 212
210 184 235 232 225 244 197 215 249 221 149 158 160 162 151 143 139 134 133 133 127 125 127 144 147 142 141 150 168 198 199 192 188 192 200 200 199 210 210 209 210 212 217 216 213 208 210 210 214
209 209 207 226 236 256 211 230 247 148 97 92 112 131 134 137 134 133 141 146 144 141 136 146 153 151 142 149 172 185 178 192 190 195 199 208 210 216 212 208 213 222 222 222 212 216 219 216 215
205 219 237 263 280 277 245 238 250 159 140 131 124 124 127 132 132 129 123 125 131 142 149 149 133 128 137 152 149 144 147 143 179 205 197 211 212 228 217 212 213 219 220 218 214 221 222 222 224
244 232 193 207 221 249 249 232 230 205 188 171 159 146 132 131 130 134 133 130 119 116 108 99 105 113 93 97 126 130 143 154 172 175 198 218 219 215 216 224 227 228 227 219 212 218 221 222 230
195 208 216 229 235 233 257 250 228 162 161 162 151 142 146 139 141 144 139 138 128 112 103 97 85 70 65 67 70 83 85 96 117 124 165 235 227 219 227 231 235 243 239 232 222 225 226 227 233
219 211 198 210 234 233 258 264 3 68 112 124 123 135 144 145 144 136 134 130 125 126 118 113 102 83 61 55 70 76 89 89 98 97 44 307 264 250 259 257 251 260 262 249 239 239 236 232 234